period_start,C,m1,H,J0,J1,J2,J3,J4,J5,JA,JB,JC,JD,JJ,JK,JN,#
2014-11-10 09:55:53,0.03,0.39,0.00,21.10,25.23,28.10,4.83,26.93,1019.01,2040.84,3283.36,3248.94,3482.05,350.05,350.81,7.31,0000 0000 0000 0000 000000
2014-11-10 10:00:54,0.06,0.39,0.00,21.11,25.25,28.09,4.84,26.79,1019.06,2040.70,3282.38,3248.18,3481.43,350.54,351.27,7.34,0000 0000 0000 0000 000000
2014-11-10 10:05:55,0.02,0.39,0.00,21.11,25.25,28.05,4.83,26.85,1019.06,2040.62,3281.53,3247.99,3480.96,350.16,351.10,7.37,0000 0000 0000 0000 000000
2014-11-10 10:10:57,0.09,0.40,0.00,21.09,25.25,28.11,4.87,26.77,1019.06,2040.67,3280.74,3247.61,3480.31,349.98,351.11,7.40,0000 0000 0000 0000 000000
2014-11-10 10:15:58,0.00,0.40,0.00,21.10,25.26,28.11,4.83,26.83,1019.06,2040.62,3280.02,3247.01,3479.92,350.05,350.89,7.43,0000 0000 0000 0000 000000
2014-11-10 10:20:59,0.03,0.40,0.00,21.09,25.27,28.10,4.84,26.75,1019.06,2040.50,3279.31,3246.78,3479.19,349.81,350.68,7.46,0000 0000 0000 0000 000000
2014-11-10 10:26:00,0.03,0.40,0.00,21.11,25.27,28.11,4.80,26.74,1019.06,2040.10,3278.29,3246.04,3478.50,349.78,350.46,7.49,0000 0000 0000 0000 000000
2014-11-10 10:31:02,0.04,0.40,0.00,21.11,25.27,28.12,4.85,26.73,1019.08,2040.13,3277.56,3245.98,3478.00,349.91,350.63,7.52,0000 0000 0000 0000 000000
2014-11-10 10:36:03,0.06,0.40,0.00,21.11,25.29,28.15,4.82,26.84,1019.07,2040.11,3276.84,3245.23,3477.29,350.05,350.75,7.55,0000 0000 0000 0000 000000
2014-11-10 10:41:04,0.02,0.40,0.00,21.11,25.30,28.14,4.92,27.01,1019.12,2040.05,3275.97,3245.00,3476.93,350.53,351.35,7.58,0000 0000 0000 0000 000000
2014-11-10 10:46:06,0.08,0.41,0.00,21.10,25.30,28.19,4.81,26.94,1019.34,2040.08,3275.12,3244.51,3476.17,349.68,350.27,7.61,0000 0000 0000 0000 000000
2014-11-10 10:51:07,0.04,0.41,0.00,21.12,25.30,28.15,4.85,26.83,1019.50,2040.03,3274.38,3244.01,3475.72,349.77,350.87,7.64,0000 0000 0000 0000 000000
2014-11-10 10:56:08,0.06,0.41,0.00,21.10,25.31,28.17,4.83,26.90,1019.54,2040.02,3273.57,3243.64,3475.02,350.09,351.17,7.66,0000 0000 0000 0000 000000
2014-11-10 11:01:10,0.05,0.41,0.00,21.11,25.32,28.18,4.86,26.87,1019.54,2040.01,3272.73,3243.02,3474.29,350.44,351.39,7.69,0000 0000 0000 0000 000000
2014-11-10 11:06:11,0.04,0.41,0.00,21.11,25.32,28.13,4.80,26.85,1019.52,2040.01,3271.95,3242.77,3473.82,349.76,350.80,7.72,0000 0000 0000 0000 000000
2014-11-10 11:11:12,0.06,0.41,0.00,21.12,25.32,28.18,4.87,26.76,1019.51,2040.01,3271.09,3242.07,3473.05,350.11,350.96,7.75,0000 0000 0000 0000 000000
2014-11-10 11:16:14,0.06,0.41,0.00,21.12,25.32,28.22,4.87,27.06,1019.36,2040.00,3270.20,3241.80,3472.53,350.40,351.17,7.78,0000 0000 0000 0000 000000
2014-11-10 11:21:15,0.06,0.42,0.00,21.13,25.34,28.23,4.76,26.93,1019.39,2040.00,3269.01,3241.04,3471.88,348.89,349.82,7.81,0000 0000 0000 0000 000000
2014-11-10 11:26:16,0.05,0.42,0.00,21.13,25.35,28.24,4.83,26.90,1019.43,2040.00,3268.08,3240.85,3471.13,349.71,350.68,7.84,0000 0000 0000 0000 000000
2014-11-10 11:31:17,0.07,0.42,0.00,21.13,25.35,28.22,4.84,27.04,1019.51,2040.00,3267.20,3240.10,3470.74,350.33,350.94,7.87,0000 0000 0000 0000 000000
2014-11-10 11:36:18,0.04,0.42,0.00,21.12,25.35,28.20,4.85,27.05,1019.54,2040.00,3266.37,3239.92,3470.04,349.70,350.58,7.90,0000 0000 0000 0000 000000
2014-11-10 11:41:19,0.09,0.43,0.00,21.14,25.35,28.22,4.89,26.93,1019.55,2040.00,3265.29,3239.11,3469.34,350.44,351.46,7.93,0000 0000 0000 0000 000000
2014-11-10 11:46:21,0.02,0.43,0.00,21.15,25.35,28.27,4.89,26.88,1019.53,2040.00,3264.74,3239.00,3468.97,350.36,351.20,7.96,0000 0000 0000 0000 000000
2014-11-10 11:51:22,0.06,0.43,0.00,21.17,25.36,28.24,4.79,26.84,1019.54,2040.00,3264.00,3238.59,3468.25,349.38,350.17,7.99,0000 0000 0000 0000 000000
2014-11-10 11:56:23,0.05,0.43,0.00,21.16,25.37,28.26,4.85,26.90,1019.53,2040.00,3263.19,3238.02,3467.82,350.27,351.19,8.02,0000 0000 0000 0000 000000
2014-11-10 12:01:24,0.04,0.43,0.00,21.17,25.37,28.23,4.80,26.88,1019.54,2039.99,3262.66,3237.89,3467.07,349.93,350.76,8.05,0000 0000 0000 0000 000000
2014-11-10 12:06:25,0.07,0.43,0.00,21.17,25.37,28.26,4.86,26.96,1019.53,2039.99,3261.87,3237.16,3466.57,349.81,350.83,8.08,0000 0000 0000 0000 000000
2014-11-10 12:11:27,0.03,0.43,0.00,21.18,25.37,28.31,4.77,26.77,1019.55,2039.99,3261.00,3236.97,3466.00,349.94,350.93,8.10,0000 0000 0000 0000 000000
2014-11-10 12:16:28,0.08,0.44,0.00,21.16,25.37,28.27,4.79,26.92,1019.55,2039.98,3260.11,3236.45,3465.46,349.55,350.41,8.13,0000 0000 0000 0000 000000
2014-11-10 12:21:29,0.04,0.44,0.00,21.16,25.39,28.23,4.81,26.93,1019.55,2039.99,3259.46,3236.01,3464.87,349.94,350.63,8.16,0000 0000 0000 0000 000000
2014-11-10 12:26:30,0.07,0.44,0.00,21.17,25.40,28.24,4.86,26.99,1019.55,2039.98,3258.56,3235.60,3464.08,350.14,351.13,8.19,0000 0000 0000 0000 000000
2014-11-10 12:31:31,0.04,0.44,0.00,21.15,25.40,28.26,4.86,26.86,1019.55,2039.98,3257.82,3235.03,3463.73,350.28,351.15,8.22,0000 0000 0000 0000 000000
2014-11-10 12:36:33,0.03,0.44,0.00,21.15,25.40,28.27,4.79,26.88,1019.55,2039.98,3256.94,3234.91,3463.03,349.79,350.69,8.25,0000 0000 0000 0000 000000
2014-11-10 12:41:34,0.07,0.44,0.00,21.15,25.40,28.31,4.87,26.98,1019.57,2039.97,3256.05,3234.15,3462.68,350.30,351.25,8.28,0000 0000 0000 0000 000000
2014-11-10 12:46:35,0.04,0.45,0.00,21.16,25.40,28.34,4.85,26.95,1019.57,2039.97,3255.35,3234.00,3462.03,349.96,350.72,8.31,0000 0000 0000 0000 000000
2014-11-10 12:51:36,0.04,0.45,0.00,21.18,25.40,28.28,4.89,26.99,1019.72,2039.98,3254.81,3233.77,3461.59,349.79,350.65,8.34,0000 0000 0000 0000 000000
2014-11-10 12:56:37,0.06,0.45,0.00,21.18,25.42,28.34,4.85,26.93,1019.91,2039.98,3253.86,3233.06,3460.99,349.06,350.06,8.37,0000 0000 0000 0000 000000
2014-11-10 13:01:38,0.05,0.45,0.00,21.17,25.42,28.34,4.87,26.83,1020.02,2039.95,3253.05,3232.82,3460.15,350.76,351.87,8.40,0000 0000 0000 0000 000000
2014-11-10 13:06:40,0.05,0.45,0.00,21.18,25.42,28.32,4.83,26.84,1020.02,2039.85,3252.21,3232.07,3459.79,349.74,350.80,8.43,0000 0000 0000 0000 000000
2014-11-10 13:11:41,0.04,0.45,0.00,21.17,25.42,28.36,4.86,26.80,1020.03,2039.88,3251.50,3232.00,3459.05,350.05,350.92,8.46,0000 0000 0000 0000 000000
2014-11-10 13:16:42,0.06,0.45,0.00,21.16,25.42,28.37,4.78,26.89,1019.99,2039.89,3250.77,3231.50,3458.74,349.98,351.00,8.48,0000 0000 0000 0000 000000
2014-11-10 13:21:44,0.03,0.46,0.00,21.17,25.42,28.33,4.90,26.98,1019.99,2039.82,3249.94,3231.01,3458.04,350.39,351.33,8.51,0000 0000 0000 0000 000000
2014-11-10 13:26:45,0.02,0.46,0.00,21.15,25.42,28.34,4.81,26.85,1019.88,2039.60,3249.04,3230.54,3457.42,349.93,351.07,8.54,0000 0000 0000 0000 000000
2014-11-10 13:31:46,0.08,0.46,0.00,21.16,25.42,28.36,4.88,26.91,1019.92,2039.62,3248.17,3230.02,3457.00,350.10,351.14,8.57,0000 0000 0000 0000 000000
2014-11-10 13:36:48,0.05,0.46,0.00,21.17,25.42,28.37,4.85,27.04,1019.92,2039.65,3247.55,3229.89,3456.43,349.94,350.96,8.60,0000 0000 0000 0000 000000
2014-11-10 13:41:49,0.03,0.46,0.00,21.17,25.42,28.35,4.91,26.92,1019.97,2039.45,3246.67,3229.12,3455.99,350.52,351.48,8.63,0000 0000 0000 0000 000000
2014-11-10 13:46:51,0.02,0.46,0.00,21.15,25.43,28.37,4.84,26.98,1019.95,2039.42,3245.87,3229.00,3455.25,350.13,351.34,8.66,0000 0000 0000 0000 000000
2014-11-10 13:51:52,0.06,0.46,0.00,21.15,25.44,28.38,4.80,26.94,1019.95,2039.45,3245.05,3228.64,3455.00,349.86,350.93,8.69,0000 0000 0000 0000 000000
2014-11-10 13:56:53,0.10,0.46,0.00,21.17,25.44,28.42,4.84,27.02,1019.81,2039.46,3244.24,3228.03,3454.36,349.63,350.58,8.72,0000 0000 0000 0000 000000
2014-11-10 14:01:54,0.02,0.47,0.00,21.18,25.45,28.41,4.87,27.08,1019.84,2039.53,3243.47,3227.92,3453.98,349.71,350.76,8.75,0000 0000 0000 0000 000000
2014-11-10 14:06:56,0.04,0.47,0.00,21.19,25.45,28.38,4.83,26.93,1019.88,2039.40,3242.89,3227.19,3453.19,349.98,350.83,8.78,0000 0000 0000 0000 000000
2014-11-10 14:11:57,0.07,0.47,0.00,21.18,25.45,28.38,4.86,26.83,1020.01,2039.58,3242.08,3227.00,3452.94,350.42,351.45,8.81,0000 0000 0000 0000 000000
2014-11-10 14:16:58,0.05,0.47,0.00,21.18,25.45,28.36,4.82,26.91,1020.02,2039.55,3241.40,3226.75,3452.13,349.76,350.77,8.84,0000 0000 0000 0000 000000
2014-11-10 14:22:00,0.05,0.47,0.00,21.20,25.45,28.37,4.87,26.92,1020.02,2039.59,3240.60,3226.06,3451.87,350.37,351.16,8.87,0000 0000 0000 0000 000000
2014-11-10 14:27:01,-0.00,0.47,0.00,21.19,25.45,28.38,4.84,26.94,1020.02,2039.32,3239.89,3225.94,3451.07,349.47,350.48,8.89,0000 0000 0000 0000 000000
2014-11-10 14:32:02,0.04,0.48,0.00,21.19,25.45,28.39,4.82,26.93,1020.03,2039.21,3239.03,3225.16,3450.70,350.09,351.14,8.92,0000 0000 0000 0000 000000
2014-11-10 14:37:03,0.03,0.48,0.00,21.20,25.45,28.38,4.85,26.94,1020.03,2039.14,3238.17,3224.99,3450.03,349.91,350.94,8.95,0000 0000 0000 0000 000000
2014-11-10 14:42:04,0.08,0.48,0.00,21.18,25.45,28.42,4.83,26.82,1020.03,2039.14,3237.20,3224.58,3449.69,350.23,351.33,8.98,0000 0000 0000 0000 000000
2014-11-10 14:47:05,0.06,0.48,0.00,21.17,25.45,28.42,4.84,26.98,1020.04,2039.23,3236.73,3224.03,3449.01,349.73,350.95,9.01,0000 0000 0000 0000 000000
2014-11-10 14:52:07,0.01,0.48,0.00,21.16,25.45,28.44,4.87,26.83,1020.04,2039.10,3235.93,3223.94,3448.37,349.40,350.69,9.04,0000 0000 0000 0000 000000
2014-11-10 14:57:08,0.08,0.48,0.00,21.16,25.45,28.43,4.82,26.92,1020.04,2039.21,3235.06,3223.25,3448.01,349.87,351.06,9.07,0000 0000 0000 0000 000000
2014-11-10 15:02:09,0.07,0.48,0.00,21.19,25.45,28.40,4.86,26.97,1020.04,2039.45,3234.38,3223.01,3447.83,349.68,350.56,9.10,0000 0000 0000 0000 000000
2014-11-10 15:07:10,0.01,0.49,0.00,21.18,25.45,28.44,4.88,27.01,1020.04,2039.28,3233.70,3222.81,3447.05,350.10,351.12,9.13,0000 0000 0000 0000 000000
2014-11-10 15:12:11,0.06,0.49,0.00,21.15,25.45,28.40,4.90,26.95,1020.04,2039.19,3232.92,3222.06,3446.37,350.11,351.16,9.16,0000 0000 0000 0000 000000
2014-11-10 15:17:12,0.03,0.49,0.00,21.15,25.45,28.41,4.85,26.98,1020.04,2039.19,3232.07,3221.98,3445.99,350.07,351.16,9.19,0000 0000 0000 0000 000000
2014-11-10 15:22:13,0.07,0.49,0.00,21.16,25.46,28.43,4.85,27.02,1020.06,2039.21,3231.33,3221.39,3445.40,349.78,350.78,9.22,0000 0000 0000 0000 000000
2014-11-10 15:27:15,0.04,0.49,0.00,21.16,25.46,28.46,4.80,27.01,1020.07,2039.18,3230.57,3221.00,3444.98,349.87,351.05,9.25,0000 0000 0000 0000 000000
2014-11-10 15:32:16,0.05,0.49,0.00,21.16,25.46,28.44,4.78,26.93,1020.16,2039.14,3229.84,3220.67,3444.24,349.50,350.73,9.28,0000 0000 0000 0000 000000
2014-11-10 15:37:17,0.05,0.49,0.00,21.16,25.47,28.42,4.89,27.01,1020.42,2039.06,3228.84,3220.03,3443.73,350.06,350.96,9.30,0000 0000 0000 0000 000000
2014-11-10 15:42:19,0.04,0.50,0.00,21.17,25.47,28.42,4.77,26.95,1020.36,2039.06,3228.03,3219.93,3443.03,349.51,350.65,9.33,0000 0000 0000 0000 000000
2014-11-10 15:47:20,0.06,0.50,0.00,21.16,25.47,28.45,4.92,27.00,1020.46,2039.18,3227.49,3219.36,3442.94,350.29,351.47,9.36,0000 0000 0000 0000 000000
2014-11-10 15:52:22,0.05,0.50,0.00,21.16,25.47,28.43,4.84,26.92,1020.44,2039.25,3226.90,3219.01,3442.22,350.09,351.16,9.39,0000 0000 0000 0000 000000
2014-11-10 15:57:23,0.01,0.50,0.00,21.15,25.47,28.46,4.89,26.94,1020.49,2039.18,3226.06,3218.90,3441.93,350.21,351.55,9.42,0000 0000 0000 0000 000000
2014-11-10 16:02:24,0.11,0.50,0.00,21.16,25.47,28.42,4.81,26.92,1020.52,2039.26,3225.17,3218.14,3441.15,349.74,350.86,9.45,0000 0000 0000 0000 000000
2014-11-10 16:07:25,0.02,0.50,0.00,21.16,25.46,28.46,4.81,26.95,1020.52,2039.26,3224.59,3217.99,3440.82,349.86,351.00,9.48,0000 0000 0000 0000 000000
2014-11-10 16:12:26,0.04,0.51,0.00,21.15,25.46,28.45,4.88,27.02,1020.52,2039.13,3223.87,3217.40,3440.05,349.72,350.69,9.51,0000 0000 0000 0000 000000
2014-11-10 16:17:28,0.03,0.51,0.00,21.16,25.45,28.43,4.81,26.81,1020.52,2039.09,3223.05,3217.01,3439.72,349.92,351.13,9.54,0000 0000 0000 0000 000000
2014-11-10 16:22:29,0.06,0.51,0.00,21.16,25.45,28.44,4.84,26.93,1020.52,2039.12,3222.17,3216.87,3439.03,350.20,351.11,9.57,0000 0000 0000 0000 000000
2014-11-10 16:27:30,0.06,0.51,0.00,21.18,25.45,28.43,4.83,26.89,1020.52,2039.12,3221.50,3216.12,3438.79,349.90,350.94,9.60,0000 0000 0000 0000 000000
2014-11-10 16:32:32,0.03,0.51,0.00,21.15,25.45,28.43,4.89,26.95,1020.52,2039.15,3220.86,3216.00,3438.06,350.83,352.21,9.63,0000 0000 0000 0000 000000
2014-11-10 16:37:33,0.09,0.51,0.00,21.14,25.45,28.38,4.85,27.06,1020.52,2039.20,3220.06,3215.61,3437.60,350.16,351.44,9.66,0000 0000 0000 0000 000000
2014-11-10 16:42:34,0.02,0.51,0.00,21.14,25.45,28.42,4.76,26.93,1020.52,2039.11,3219.27,3215.02,3437.01,349.90,351.18,9.69,0000 0000 0000 0000 000000
2014-11-10 16:47:35,0.06,0.51,0.00,21.14,25.45,28.45,4.81,26.99,1020.53,2039.12,3218.70,3214.95,3436.60,349.69,350.93,9.72,0000 0000 0000 0000 000000
2014-11-10 16:52:37,0.05,0.52,0.00,21.16,25.45,28.42,4.82,27.01,1020.53,2039.11,3217.91,3214.18,3436.00,350.50,351.60,9.74,0000 0000 0000 0000 000000
2014-11-10 16:57:38,0.04,0.52,0.00,21.15,25.45,28.42,4.84,26.96,1020.54,2039.11,3217.05,3213.99,3435.58,350.17,351.46,9.77,0000 0000 0000 0000 000000
2014-11-10 17:02:39,0.04,0.52,0.00,21.15,25.45,28.41,4.84,26.97,1020.55,2039.10,3216.21,3213.61,3435.02,349.64,350.81,9.80,0000 0000 0000 0000 000000
2014-11-10 17:07:40,0.05,0.52,0.00,21.14,25.45,28.37,4.82,27.03,1020.67,2039.10,3215.78,3213.04,3434.38,349.74,351.03,9.83,0000 0000 0000 0000 000000
2014-11-10 17:12:42,0.02,0.52,0.00,21.14,25.45,28.40,4.86,27.01,1020.84,2039.06,3214.93,3212.95,3434.00,350.06,351.30,9.86,0000 0000 0000 0000 000000
2014-11-10 17:17:43,0.07,0.52,0.00,21.13,25.45,28.38,4.83,27.06,1020.76,2039.08,3214.10,3212.31,3433.48,350.48,351.80,9.89,0000 0000 0000 0000 000000
2014-11-10 17:22:45,0.03,0.53,0.00,21.12,25.45,28.38,4.90,27.00,1020.92,2039.09,3213.60,3212.00,3432.99,350.09,351.62,9.92,0000 0000 0000 0000 000000
2014-11-10 17:27:46,0.05,0.53,0.00,21.13,25.44,28.42,4.93,27.08,1020.94,2039.14,3212.88,3211.87,3432.31,350.58,351.75,9.95,0000 0000 0000 0000 000000
2014-11-10 17:32:47,0.05,0.53,0.00,21.12,25.44,28.42,4.83,27.07,1021.00,2039.08,3212.02,3211.12,3432.01,349.87,351.28,9.98,0000 0000 0000 0000 000000
2014-11-10 17:37:48,0.05,0.53,0.00,21.14,25.44,28.41,4.89,27.11,1021.01,2039.15,3211.18,3210.97,3431.55,349.76,351.41,10.01,0000 0000 0000 0000 000000
2014-11-10 17:42:49,0.07,0.53,0.00,21.11,25.43,28.40,4.84,27.11,1021.01,2039.11,3210.39,3210.33,3431.00,350.27,351.77,10.04,0000 0000 0000 0000 000000
2014-11-10 17:47:50,0.02,0.53,0.00,21.12,25.43,28.41,4.87,26.96,1021.01,2039.11,3209.81,3210.01,3430.32,350.11,351.25,10.07,0000 0000 0000 0000 000000
2014-11-10 17:52:52,0.03,0.53,0.00,21.12,25.42,28.37,4.84,27.05,1021.01,2039.09,3209.02,3209.86,3429.98,350.25,352.00,10.10,0000 0000 0000 0000 000000
2014-11-10 17:57:53,0.08,0.54,0.00,21.11,25.42,28.42,4.85,27.01,1021.01,2039.09,3208.25,3209.14,3429.31,349.73,351.18,10.12,0000 0000 0000 0000 000000
2014-11-10 18:02:53,0.03,0.54,0.00,21.12,25.42,28.42,4.89,27.02,1021.01,2039.05,3207.53,3208.98,3428.99,350.57,352.03,10.15,0000 0000 0000 0000 000000
2014-11-10 18:07:54,0.08,0.54,0.00,21.10,25.42,28.43,4.83,26.93,1021.03,2039.07,3206.78,3208.35,3428.21,349.94,351.44,10.18,0000 0000 0000 0000 000000
2014-11-10 18:12:56,0.02,0.54,0.00,21.10,25.42,28.43,4.91,27.14,1021.02,2039.09,3206.04,3208.01,3427.98,350.38,351.93,10.21,0000 0000 0000 0000 000000
2014-11-10 18:17:57,0.05,0.54,0.00,21.09,25.42,28.42,4.78,26.95,1021.09,2039.03,3205.35,3207.89,3427.18,349.77,351.35,10.24,0000 0000 0000 0000 000000
2014-11-10 18:22:58,0.06,0.54,0.00,21.09,25.42,28.43,4.87,27.15,1021.03,2039.07,3204.70,3207.22,3426.95,350.63,352.13,10.27,0000 0000 0000 0000 000000
2014-11-10 18:27:59,0.04,0.55,0.00,21.09,25.42,28.40,4.85,27.04,1021.02,2039.07,3203.99,3207.00,3426.23,350.04,351.28,10.30,0000 0000 0000 0000 000000
2014-11-10 18:33:00,0.05,0.55,0.00,21.09,25.42,28.43,4.92,27.06,1021.02,2039.08,3203.19,3206.71,3425.96,350.25,351.64,10.33,0000 0000 0000 0000 000000
2014-11-10 18:38:02,0.07,0.55,0.00,21.09,25.42,28.42,4.83,27.18,1021.02,2039.05,3202.43,3206.05,3425.19,349.88,351.52,10.36,0000 0000 0000 0000 000000
2014-11-10 18:43:03,0.02,0.55,0.00,21.10,25.42,28.38,4.75,26.97,1021.03,2039.10,3201.90,3205.97,3424.92,349.43,350.94,10.39,0000 0000 0000 0000 000000
2014-11-10 18:48:04,0.07,0.55,0.00,21.08,25.42,28.41,4.88,27.06,1021.02,2039.04,3200.99,3205.26,3424.11,349.88,351.38,10.42,0000 0000 0000 0000 000000
2014-11-10 18:53:05,0.03,0.55,0.00,21.09,25.41,28.39,4.77,27.01,1021.03,2039.05,3200.12,3205.00,3423.98,349.95,351.22,10.45,0000 0000 0000 0000 000000
2014-11-10 18:58:06,0.07,0.55,0.00,21.09,25.40,28.39,4.82,27.09,1021.03,2039.16,3199.50,3204.95,3423.38,349.80,351.26,10.48,0000 0000 0000 0000 000000
2014-11-10 19:03:08,0.07,0.56,0.00,21.08,25.40,28.38,4.91,27.06,1021.06,2039.35,3198.98,3204.39,3423.00,350.56,351.99,10.51,0000 0000 0000 0000 000000
2014-11-10 19:08:09,0.06,0.56,0.00,21.07,25.40,28.40,4.83,27.01,1021.07,2039.36,3198.18,3204.01,3422.52,350.05,351.36,10.53,0000 0000 0000 0000 000000
2014-11-10 19:13:10,0.05,0.56,0.00,21.05,25.40,28.40,4.95,27.21,1021.13,2039.46,3197.60,3203.89,3422.02,349.92,351.63,10.56,0000 0000 0000 0000 000000
2014-11-10 19:18:11,0.06,0.56,0.00,21.07,25.40,28.40,4.87,26.95,1021.34,2039.39,3196.76,3203.13,3421.58,349.96,351.73,10.59,0000 0000 0000 0000 000000
2014-11-10 19:23:12,0.05,0.56,0.00,21.06,25.40,28.36,4.87,27.02,1021.43,2039.46,3196.03,3203.00,3421.02,350.15,351.78,10.62,0000 0000 0000 0000 000000
2014-11-10 19:28:13,0.06,0.56,0.00,21.07,25.40,28.36,4.89,26.99,1021.45,2039.41,3195.23,3202.47,3420.51,350.33,351.92,10.65,0000 0000 0000 0000 000000
2014-11-10 19:33:14,0.04,0.57,0.00,21.07,25.40,28.38,4.96,27.03,1021.48,2039.47,3194.62,3202.02,3420.02,350.79,352.45,10.68,0000 0000 0000 0000 000000
2014-11-10 19:38:16,0.03,0.57,0.00,21.06,25.40,28.38,4.84,27.10,1021.49,2039.50,3193.81,3201.88,3419.63,350.04,351.81,10.71,0000 0000 0000 0000 000000
2014-11-10 19:43:17,0.06,0.57,0.00,21.05,25.40,28.40,4.93,27.00,1021.50,2039.38,3193.04,3201.12,3419.01,350.53,352.18,10.74,0000 0000 0000 0000 000000
2014-11-10 19:48:18,0.05,0.57,0.00,21.03,25.40,28.38,4.88,27.11,1021.50,2039.46,3192.48,3200.99,3418.44,350.04,351.74,10.77,0000 0000 0000 0000 000000
2014-11-10 19:53:19,0.02,0.57,0.00,21.04,25.40,28.35,4.89,26.99,1021.50,2039.43,3191.90,3200.72,3418.01,349.96,351.54,10.80,0000 0000 0000 0000 000000
2014-11-10 19:58:20,0.11,0.57,0.00,21.05,25.40,28.38,4.87,26.99,1021.50,2039.57,3191.08,3200.06,3417.42,350.43,352.10,10.83,0000 0000 0000 0000 000000
2014-11-10 20:03:22,-0.01,0.58,0.00,21.06,25.40,28.37,4.90,27.03,1021.50,2039.51,3190.31,3199.97,3417.01,350.24,351.98,10.86,0000 0000 0000 0000 000000
2014-11-10 20:08:23,0.11,0.58,0.00,21.07,25.39,28.36,4.85,27.09,1021.51,2039.61,3189.75,3199.32,3416.57,349.55,351.20,10.89,0000 0000 0000 0000 000000
2014-11-10 20:13:24,0.01,0.58,0.00,21.05,25.39,28.38,4.78,26.92,1021.50,2039.54,3188.97,3199.01,3416.02,349.63,351.19,10.92,0000 0000 0000 0000 000000
2014-11-10 20:18:25,0.05,0.58,0.00,21.05,25.39,28.37,4.80,27.08,1021.51,2039.47,3188.09,3198.93,3415.57,349.17,350.96,10.94,0000 0000 0000 0000 000000
2014-11-10 20:23:26,0.05,0.58,0.00,21.05,25.38,28.37,4.86,27.08,1021.51,2039.54,3187.56,3198.20,3415.01,350.17,351.73,10.97,0000 0000 0000 0000 000000
2014-11-10 20:28:27,0.03,0.58,0.00,21.06,25.38,28.37,5.01,27.12,1021.52,2039.48,3186.88,3198.00,3414.42,351.27,353.02,11.00,0000 0000 0000 0000 000000
2014-11-10 20:33:28,0.05,0.58,0.00,21.06,25.37,28.40,4.86,26.93,1021.52,2039.38,3186.03,3197.60,3413.99,349.98,351.62,11.03,0000 0000 0000 0000 000000
2014-11-10 20:38:30,0.08,0.59,0.00,21.05,25.37,28.37,4.85,27.02,1021.53,2039.43,3185.27,3197.03,3413.32,349.50,351.18,11.06,0000 0000 0000 0000 000000
2014-11-10 20:43:31,0.05,0.59,0.00,21.06,25.37,28.37,4.87,26.98,1021.52,2039.61,3184.63,3196.99,3413.00,349.46,351.19,11.09,0000 0000 0000 0000 000000
2014-11-10 20:48:32,0.02,0.59,0.00,21.05,25.37,28.35,4.88,27.16,1021.57,2039.48,3183.99,3196.32,3412.51,350.64,352.28,11.12,0000 0000 0000 0000 000000
2014-11-10 20:53:34,0.01,0.59,0.00,21.03,25.37,28.35,4.91,26.98,1021.65,2039.41,3183.17,3196.00,3412.00,350.33,351.93,11.15,0000 0000 0000 0000 000000
2014-11-10 20:58:35,0.08,0.59,0.00,21.04,25.37,28.36,4.91,27.03,1021.77,2039.53,3182.45,3195.85,3411.55,350.38,352.06,11.18,0000 0000 0000 0000 000000
2014-11-10 21:03:36,0.08,0.59,0.00,21.05,25.37,28.34,4.93,27.11,1021.96,2039.66,3181.73,3195.14,3411.03,350.18,351.96,11.21,0000 0000 0000 0000 000000
2014-11-10 21:08:37,0.06,0.60,0.00,21.04,25.37,28.39,4.88,27.04,1021.99,2039.72,3181.00,3194.99,3410.66,349.83,351.67,11.24,0000 0000 0000 0000 000000
2014-11-10 21:13:39,0.08,0.60,0.00,21.03,25.37,28.37,4.90,27.08,1021.99,2039.80,3180.15,3194.52,3410.03,350.28,352.17,11.27,0000 0000 0000 0000 000000
2014-11-10 21:18:40,0.06,0.60,0.00,21.00,25.37,28.34,4.93,27.05,1021.99,2039.90,3179.58,3194.02,3409.64,350.62,352.41,11.30,0000 0000 0000 0000 000000
2014-11-10 21:23:42,0.01,0.60,0.00,21.02,25.36,28.37,4.83,27.00,1021.99,2039.90,3178.93,3193.94,3409.02,349.80,351.61,11.33,0000 0000 0000 0000 000000
2014-11-10 21:28:43,0.08,0.60,0.00,21.02,25.36,28.37,4.76,26.95,1021.99,2039.93,3178.11,3193.24,3408.77,350.08,351.95,11.35,0000 0000 0000 0000 000000
2014-11-10 21:33:44,0.03,0.60,0.00,21.03,25.35,28.37,4.82,27.09,1021.99,2039.91,3177.58,3193.00,3408.05,350.03,351.97,11.38,0000 0000 0000 0000 000000
2014-11-10 21:38:45,0.04,0.60,0.00,21.01,25.35,28.37,4.87,27.14,1021.99,2039.78,3176.70,3192.56,3407.53,349.82,351.84,11.41,0000 0000 0000 0000 000000
2014-11-10 21:43:46,0.05,0.61,0.00,21.00,25.35,28.36,4.79,27.04,1021.99,2039.86,3176.03,3192.02,3407.01,350.21,352.12,11.44,0000 0000 0000 0000 000000
2014-11-10 21:48:47,0.04,0.61,0.00,21.00,25.35,28.35,4.79,27.04,1021.99,2039.92,3175.36,3191.99,3406.66,349.54,351.26,11.47,0000 0000 0000 0000 000000
2014-11-10 21:53:48,0.07,0.61,0.00,21.00,25.35,28.36,4.86,27.07,1022.01,2039.84,3174.56,3191.32,3406.02,349.88,351.90,11.50,0000 0000 0000 0000 000000
2014-11-10 21:58:50,0.03,0.61,0.00,21.01,25.35,28.33,4.79,26.92,1022.06,2039.93,3173.95,3191.01,3405.73,350.08,352.03,11.53,0000 0000 0000 0000 000000
2014-11-10 22:03:51,0.05,0.61,0.00,21.01,25.35,28.33,4.86,27.13,1022.07,2039.96,3173.10,3190.89,3405.05,350.38,352.34,11.56,0000 0000 0000 0000 000000
2014-11-10 22:08:52,0.06,0.61,0.00,21.01,25.35,28.36,4.81,27.04,1022.17,2039.95,3172.51,3190.16,3404.84,349.76,351.67,11.59,0000 0000 0000 0000 000000
2014-11-10 22:13:54,0.04,0.62,0.00,21.01,25.35,28.37,4.87,27.08,1022.23,2039.93,3171.65,3190.00,3404.07,349.83,351.91,11.62,0000 0000 0000 0000 000000
2014-11-10 22:18:55,0.05,0.62,0.00,21.02,25.34,28.35,4.89,27.05,1022.34,2039.95,3171.01,3189.53,3403.76,349.96,352.18,11.65,0000 0000 0000 0000 000000
2014-11-10 22:23:56,0.05,0.62,0.00,21.01,25.34,28.36,4.93,27.22,1022.44,2039.95,3170.22,3189.02,3403.03,350.07,352.06,11.68,0000 0000 0000 0000 000000
2014-11-10 22:28:57,0.02,0.62,0.00,21.01,25.33,28.36,4.86,27.09,1022.44,2039.98,3169.61,3188.98,3402.89,349.90,351.98,11.71,0000 0000 0000 0000 000000
2014-11-10 22:33:58,0.07,0.62,0.00,21.01,25.32,28.31,4.88,27.02,1022.45,2039.98,3168.96,3188.32,3402.15,350.10,351.92,11.73,0000 0000 0000 0000 000000
2014-11-10 22:38:59,0.03,0.62,0.00,20.99,25.32,28.32,4.90,27.19,1022.40,2039.96,3168.16,3188.01,3401.80,350.29,352.37,11.76,0000 0000 0000 0000 000000
2014-11-10 22:44:00,0.06,0.62,0.00,21.00,25.32,28.32,4.89,27.18,1022.33,2039.97,3167.51,3187.75,3401.04,350.12,352.13,11.79,0000 0000 0000 0000 000000
2014-11-10 22:49:01,0.05,0.63,0.00,20.99,25.32,28.30,4.93,27.14,1022.25,2039.94,3166.75,3187.05,3400.59,350.39,352.36,11.82,0000 0000 0000 0000 000000
2014-11-10 22:54:03,0.03,0.63,0.00,20.98,25.32,28.30,4.88,27.07,1022.36,2039.97,3166.03,3186.95,3400.01,350.36,352.33,11.85,0000 0000 0000 0000 000000
2014-11-10 22:59:04,0.07,0.63,0.00,20.98,25.32,28.31,4.83,27.14,1022.37,2039.96,3165.27,3186.35,3399.88,349.77,351.96,11.88,0000 0000 0000 0000 000000